Flag for Germany Weather past 2 weeks in Bad Kreuznach, Rhineland-Palatinate, Germany

Now
52 °F

Clear.


Feels Like: 51 °F
Forecast: 55 / 81 °F
Wind: 5 mph from North

Location: Wiesbaden Airport

Current Time: Jul 31, 2015 at 3:41:10 AM

Latest Report: Jul 31, 2015 at 2:58 AM


Visibility: N/A

Pressure: 30.10 "Hg

Humidity: 88%

Dew point: 48 °F

Location of Bad KreuznachLocation

Historic Weather in Bad Kreuznach — Graph

°F

Bad Kreuznach temperature yesterday

Maximum temperature yesterday: 72 °F (at 3:58 PM)
Minimum temperature yesterday: 50 °F (at 5:58 AM)
Average temperature yesterday: 60 °F

Past Weeks' High & Low Weather Summary

 TemperatureHumidityPressure
High95 °F (Jul 17, 4:58 PM)100% (Jul 18, 2:58 AM)30.10 "Hg (Jul 18, 2:58 AM)
Low49 °F (Jul 26, 5:58 AM)26% (Jul 17, 2:58 PM)29.62 "Hg (Jul 24, 10:58 PM)
Average71 °F62%29.89 "Hg
* Reported Jul 16 1:58 AM — Jul 31 1:58 AM, Bad Kreuznach, Weather by CustomWeather, © 2015

Note: Actual official high and low records may vary slightly from our data, if they occured in-between our weather recording intervals... More about our weather records

Advertising

Bad Kreuznach weather history for previous 24 hours

 ConditionsComfort  
Time TempWeatherWind HumidityBarometerVisibility
1:58 AM
Fri, Jul 31
54 °FClear.5 mph82%30.10 "HgN/A
12:58 AM54 °FClear.3 mph82%30.10 "HgN/A
11:58 PM
Thu, Jul 30
56 °FPassing clouds.3 mph75%30.09 "HgN/A
10:58 PM57 °FPassing clouds.5 mph72%30.07 "HgN/A
9:58 PM60 °FBroken clouds.1 mph63%30.06 "HgN/A
8:58 PM61 °FMostly cloudy.5 mph55%30.04 "HgN/A
7:58 PM64 °FMostly cloudy.8 mph52%30.02 "HgN/A
6:58 PM64 °FBroken clouds.10 mph49%30.00 "HgN/A
5:58 PM68 °FOvercast.10 mph46%29.99 "HgN/A
4:58 PM72 °FBroken clouds.12 mph33%29.97 "HgN/A
3:58 PM72 °FPartly sunny.8 mph31%29.97 "HgN/A
2:58 PM70 °FPartly sunny.8 mph33%29.97 "HgN/A
1:58 PM70 °FScattered clouds.12 mph34%29.97 "HgN/A
12:58 PM70 °FScattered clouds.3 mph33%29.98 "HgN/A
11:58 AM67 °FPartly sunny.6 mph42%29.98 "HgN/A
10:58 AM63 °FScattered clouds.2 mph53%29.98 "HgN/A
9:58 AM62 °FSunny.9 mph56%29.98 "HgN/A
8:58 AM59 °FSunny.8 mph62%29.99 "HgN/A
7:58 AM54 °FSunny.6 mph74%29.98 "HgN/A
6:58 AM50 °FSunny.No wind82%29.98 "HgN/A
5:58 AM50 °FClear.3 mph79%29.97 "HgN/A
4:58 AM50 °FClear.2 mph76%29.96 "HgN/A
3:58 AM50 °FClear.2 mph76%29.96 "HgN/A
Weather by CustomWeather, © 2015

See weather overviewHow to use our weather pages